Regional Weather Roundup
Issued by NWS Nashville, TN

Home | Current Version | Previous Version | Text Only | Print | Product List | Glossary On
Versions: 1 2 3 4 5 6 7 8 9 10 11 12 13 14 15 16 17 18 19 20 21 22 23 24 25 26 27 28 29 30 31 32 33 34 35 36 37 38 39 40 41 42 43 44 45 46 47 48 49 50
000
ASUS44 KOHX 031010
RWROHX
MIDDLE TENNESSEE HOURLY WEATHER ROUNDUP
NATIONAL WEATHER SERVICE NASHVILLE TN
500 AM CDT MON AUG 03 2015

NOTE: "FAIR" INDICATES FEW OR NO CLOUDS BELOW 12,000 FEET WITH
NO SIGNIFICANT WEATHER AND/OR OBSTRUCTIONS TO VISIBILITY.

* THESE REPORTS ARE NOT UNDER NWS QUALITY CONTROL AND MAY NOT
  REPORT WEATHER SUCH AS PRECIPITATION AND FOG.


TNZ005>011-023>034-057-059-062>066-078-080-031100
...NORTHERN MIDDLE TENNESSEE...

CITY           SKY/WX    TMP DP  RH WIND       PRES   REMARKS
CLARKSVILLE    CLEAR     67  65  93 SE3       29.90F
CROSSVILLE     CLEAR     61  58  90 CALM      29.99R
DICKSON        CLEAR     66  63  88 CALM      29.93R
NASHVILLE      PTCLDY    66  64  93 CALM      29.93R
ROCKWOOD       CLEAR     63  60  90 NW3       29.96F
SMYRNA         CLEAR     63  62  96 CALM      29.94R
$$
TNZ056-058-060-061-075>077-079-093>097-031100
...SOUTHERN MIDDLE TENNESSEE...

CITY           SKY/WX    TMP DP  RH WIND       PRES   REMARKS
COLUMBIA       CLEAR     63  63 100 CALM      29.92S
LEWISBURG      CLEAR     59  57  92 CALM      29.93S
SHELBYVILLE    CLEAR     63  63 100 CALM      29.94S
TULLAHOMA      CLEAR     57  55  94 CALM      29.95S
WINCHESTER     CLEAR     57  57 100 CALM      29.95R
$$


...KEY TO REMARKS...
VSB - VISIBILITY IN MILES
WCI - WIND CHILL INDEX
HX  - HEAT INDEX




USA.gov is the U.S. government's official web portal to all federal, state and local government web resources and services.